Startpagina
METAR-TAF:

METAR-TAF

Vliegvelden :

Nenana, Alaska, Verenigde Staten

breedte: 64-33N, lengte: 149-05W, hoogte: 110 m

Actueel weer

Dit bericht is 16 minuten geleden gemaakt, om 04:32 UTC
Wind 6 kt uit het oosten
Temperatuur -9°C
Vochtigheid 79%
Druk 1012 hPa
Zicht: 16.1 km
Gebroken wolken op 900 ft

METAR: PANN 090432Z AUTO 08006KT 10SM BKN009 M09/M12 A2989 RMK AO2 T10891117 TSNO

Tijdstip: 19:48 (04:48 UTC)


TAF: ontbreekt

Waarnemingen en weersverwachtingen van meer dan 4000 vliegvelden (METAR en TAF).

De beschikbare stations zijn de gele en rode punten op de kaart.

Ga met uw muis naar het station om de naam te zien.

Klik dan om waarnemingen en weersverwachtingen te zien.

kaart wijzigen: klik op de groene knoppen met een zwart kruis om in te zoomen, op de groene knop met een streepje om uit te zoomen of op de groene pijlen voor aangrenzende kaarten.


METAR-TAF: